Printer-friendly version

IAU Minor Planet Center

Minor Planet Center

MPEC 2004-M24 : 2004 MN1

The following Minor Planet Electronic Circular may be linked-to from your own Web pages, but must not otherwise be redistributed electronically.


Read MPEC 2004-M23 Read MPEC 2004-M25


M.P.E.C. 2004-M24                                Issued 2004 June 19, 17:26 UT

     The Minor Planet Electronic Circulars contain information on unusual
         minor planets and routine data on comets.  They are published
   on behalf of Commission 20 of the International Astronomical Union by the
          Minor Planet Center, Smithsonian Astrophysical Observatory,
                          Cambridge, MA 02138, U.S.A.

         Supported in part by the Steven and Michele Kirsch Foundation
             Prepared using the Tamkin Foundation Computer Network

                              MPC@CFA.HARVARD.EDU
          URL http://cfa-www.harvard.edu/iau/mpc.html  ISSN 1523-6714

                                   2004 MN1

Observations:
     K04M01N* C2004 06 16.23416 14 44 15.21 -07 31 00.6          19.5   EM024704
     K04M01N  C2004 06 16.24432 14 43 41.82 -07 38 23.4          19.7   EM024704
     K04M01N  C2004 06 16.25440 14 43 08.51 -07 45 44.6          19.9   EM024704
     K04M01N  C2004 06 16.26448 14 42 35.13 -07 53 06.3          20.1   EM024704
     K04M01N  C2004 06 17.16950 13 46 22.75 -19 48 01.2          19.7   EM024704
     K04M01N  C2004 06 17.19062 13 44 51.30 -20 05 01.3          19.9   EM024704
     K04M01N  C2004 06 17.20084 13 44 06.54 -20 13 17.3          19.4   EM024704
     K04M01N  C2004 06 17.21112 13 43 21.67 -20 21 31.8          19.4   EM024704

Observer details:
704 Lincoln Laboratory ETS, New Mexico.  Observers M. Blythe, F. Shelly,
    M. Bezpalko, R. Huber, L. Manguso, D. Torres, R. Kracke, M. McCleary,
    H. Stange, A. Milner.  Measurers J. Stuart, R. Sayer, J. Evans, J. Kommers.
    1.0-m f/2.15 reflector + CCD.

Orbital elements:
2004 MN1
Epoch 2004 July 14.0 TT = JDT 2453200.5                 MPC
M 344.46932              (2000.0)            P               Q
n   0.59290663     Peri.  249.61825     +0.77702146     +0.38930617
a   1.4032827      Node    84.58800     -0.20323770     +0.89888644
e   0.3994737      Incl.   29.79278     -0.59576177     +0.20110662
P   1.66           H   24.6           G   0.15           U   8
Residuals in seconds of arc
040616 704  0.5-  0.5-    040616 704  0.1+  0.1+    040617 704  0.9-  1.4-
040616 704  0.6+  0.1+    040617 704 (7.1-  5.1-)   040617 704  0.7+  1.1+
040616 704  0.3+  0.1-    040617 704  0.7+  0.3-

Ephemeris:
2004 MN1                 a,e,i = 1.40, 0.40, 30                  q = 0.8427
Date    TT    R. A. (2000) Decl.     Delta      r     Elong.  Phase     V
2004 06 14    16 06.83   +11 26.8    0.046    1.052   139.7    38.7    19.6
2004 06 15    15 37.69   +04 54.2    0.038    1.046   139.9    38.8    19.2
2004 06 16    14 56.36   -04 42.5    0.032    1.040   136.7    42.1    18.9
2004 06 17    13 58.20   -17 25.4    0.029    1.034   127.3    51.4    18.9
2004 06 18    12 43.01   -30 11.6    0.029    1.028   113.0    65.5    19.3
2004 06 19    11 22.54   -38 39.0    0.033    1.022    99.1    79.1    20.0
2004 06 20    10 13.79   -42 17.1    0.039    1.016    88.6    89.1    20.7
2004 06 21    09 23.07   -43 11.3    0.047    1.010    81.4    96.0    21.4
2004 06 22    08 47.34   -42 58.5    0.056    1.005    76.3   100.6    22.0
2004 06 23    08 21.92   -42 23.4    0.066    0.999    72.7   103.7    22.5
2004 06 24    08 03.31   -41 43.1    0.075    0.993    70.0   105.9    22.9

Kyle E. Smalley              (C) Copyright 2004 MPC           M.P.E.C. 2004-M24

Read MPEC 2004-M23 Read MPEC 2004-M25


Our Web policy. Index to the CBAT/MPC/ICQ pages.


Valid HTML 4.01!